WGN6432 MMMX-MNMG

Flight info

Callsign WGN6432
Flight time N/A
Altitude 35000
Route UKUNO2B UKUNO UT108 VER UM210 IPTAK UA552 AUR UG436 CAT UA317 TUKOR URPOS1A
Aircraft MD11/H-SDE1E2E3FGHIJ2J3J4J5M1RWXY/LB1D1

Departure

Time N/A
Airport Mexico City Benito Juárez International Airport (MMMX)

Arrival

Time 2026-04-29 12:33
Airport Augusto C. Sandino (Managua) International Airport (MNMG)
Time Latitude Longitude Altitude Speed Heading
2026-04-29 12:13 12.80296 -87.62798 7950 ft 271 kts 111°
2026-04-29 12:13 12.79521 -87.61106 7797 ft 254 kts 111°
2026-04-29 12:13 12.78782 -87.59488 7505 ft 246 kts 111°
2026-04-29 12:14 12.78065 -87.57918 7146 ft 242 kts 111°
2026-04-29 12:14 12.77332 -87.56302 6330 ft 263 kts 111°
2026-04-29 12:14 12.76550 -87.54554 5524 ft 280 kts 110°
2026-04-29 12:14 12.75762 -87.52696 4864 ft 290 kts 110°
2026-04-29 12:15 12.74974 -87.50772 4232 ft 303 kts 108°
2026-04-29 12:15 12.74178 -87.48698 3984 ft 325 kts 110°
2026-04-29 12:15 12.73184 -87.46631 3921 ft 320 kts 115°
2026-04-29 12:15 12.72159 -87.44658 3875 ft 304 kts 114°
2026-04-29 12:16 12.71208 -87.42745 3999 ft 299 kts 113°
2026-04-29 12:16 12.70293 -87.40822 3747 ft 294 kts 112°
2026-04-29 12:16 12.69433 -87.38962 3848 ft 290 kts 112°
2026-04-29 12:16 12.68571 -87.37078 3878 ft 289 kts 111°
2026-04-29 12:17 12.67713 -87.35196 3885 ft 290 kts 111°
2026-04-29 12:17 12.66863 -87.33332 3888 ft 290 kts 111°
2026-04-29 12:17 12.66008 -87.31454 3889 ft 289 kts 111°
2026-04-29 12:17 12.65156 -87.29582 3889 ft 289 kts 111°
2026-04-29 12:18 12.64307 -87.27717 3892 ft 289 kts 111°
2026-04-29 12:18 12.63457 -87.25843 3891 ft 288 kts 111°
2026-04-29 12:18 12.62610 -87.23981 3893 ft 289 kts 111°
2026-04-29 12:18 12.61759 -87.22113 3893 ft 288 kts 111°
2026-04-29 12:19 12.60916 -87.20261 3893 ft 288 kts 111°
2026-04-29 12:19 12.60086 -87.18437 3882 ft 273 kts 112°
2026-04-29 12:19 12.59313 -87.16748 3881 ft 251 kts 111°
2026-04-29 12:19 12.57831 -87.13506 3883 ft 233 kts 111°
2026-04-29 12:20 12.55964 -87.09546 3916 ft 228 kts 117°
2026-04-29 12:20 12.55069 -87.08200 3890 ft 225 kts 121°
2026-04-29 12:20 12.54162 -87.06902 3889 ft 220 kts 120°
2026-04-29 12:20 12.53291 -87.05638 3891 ft 218 kts 120°
2026-04-29 12:21 12.52425 -87.04363 3891 ft 216 kts 119°
2026-04-29 12:21 12.51570 -87.03092 3891 ft 214 kts 119°
2026-04-29 12:21 12.50735 -87.01848 3893 ft 214 kts 119°
2026-04-29 12:21 12.49889 -87.00588 3895 ft 213 kts 119°
2026-04-29 12:22 12.49046 -86.99331 3893 ft 213 kts 119°
2026-04-29 12:22 12.48202 -86.98072 3897 ft 213 kts 119°
2026-04-29 12:22 12.47370 -86.96833 3894 ft 213 kts 119°
2026-04-29 12:22 12.46521 -86.95572 3896 ft 213 kts 119°
2026-04-29 12:23 12.45683 -86.94323 3898 ft 213 kts 119°
2026-04-29 12:23 12.44836 -86.93062 3906 ft 214 kts 119°
2026-04-29 12:23 12.43988 -86.91800 3910 ft 214 kts 119°
2026-04-29 12:23 12.43152 -86.90556 3913 ft 214 kts 119°
2026-04-29 12:24 12.42300 -86.89287 3912 ft 214 kts 119°
2026-04-29 12:24 12.41463 -86.88043 3911 ft 214 kts 119°
2026-04-29 12:24 12.34701 -86.77983 3893 ft 213 kts 118°
2026-04-29 12:24 12.33865 -86.76729 3915 ft 212 kts 118°
2026-04-29 12:25 12.29726 -86.70548 3863 ft 210 kts 118°
2026-04-29 12:25 12.19994 -86.56083 3646 ft 207 kts 118°
2026-04-29 12:25 12.18607 -86.53532 3898 ft 203 kts 103°
2026-04-29 12:26 12.18259 -86.52119 3919 ft 202 kts 97°
2026-04-29 12:26 12.18026 -86.50705 3942 ft 200 kts 94°
2026-04-29 12:26 12.17837 -86.49307 3936 ft 196 kts 93°
2026-04-29 12:26 12.17670 -86.47955 3925 ft 188 kts 93°
2026-04-29 12:27 12.17514 -86.46639 3932 ft 181 kts 92°
2026-04-29 12:27 12.17368 -86.45371 3938 ft 177 kts 92°
2026-04-29 12:27 12.17226 -86.44123 3934 ft 176 kts 92°
2026-04-29 12:27 12.17087 -86.42885 3935 ft 176 kts 92°
2026-04-29 12:28 12.16947 -86.41649 3877 ft 174 kts 92°
2026-04-29 12:28 12.16807 -86.40395 3499 ft 178 kts 92°
2026-04-29 12:28 12.16665 -86.39142 3188 ft 177 kts 92°
2026-04-29 12:28 12.16526 -86.37909 2918 ft 173 kts 92°
2026-04-29 12:29 12.16388 -86.36668 2712 ft 175 kts 92°
2026-04-29 12:29 12.16249 -86.35450 2717 ft 167 kts 92°
2026-04-29 12:29 12.16116 -86.34300 2729 ft 159 kts 92°
2026-04-29 12:29 12.15988 -86.33166 2738 ft 158 kts 92°
2026-04-29 12:30 12.15865 -86.32056 2735 ft 157 kts 92°
2026-04-29 12:30 12.15741 -86.30962 2702 ft 155 kts 92°
2026-04-29 12:30 12.15618 -86.29847 2485 ft 158 kts 92°
2026-04-29 12:30 12.15494 -86.28738 2284 ft 156 kts 92°
2026-04-29 12:31 12.15370 -86.27628 2079 ft 154 kts 93°
2026-04-29 12:31 12.15248 -86.26550 1885 ft 153 kts 93°
2026-04-29 12:31 12.15127 -86.25463 1685 ft 153 kts 93°
2026-04-29 12:31 12.15006 -86.24371 1475 ft 153 kts 94°
2026-04-29 12:32 12.14885 -86.23283 1274 ft 154 kts 94°
2026-04-29 12:32 12.14767 -86.22199 1067 ft 156 kts 94°
2026-04-29 12:32 12.14648 -86.21106 843 ft 151 kts 97°
2026-04-29 12:32 12.14510 -86.20023 647 ft 156 kts 95°
2026-04-29 12:33 12.14394 -86.18922 434 ft 154 kts 96°
2026-04-29 12:33 12.14276 -86.17849 246 ft 152 kts 96°
2026-04-29 12:33 12.14166 -86.16908 223 ft 85 kts 96°
2026-04-29 12:33 12.14123 -86.16531 223 ft 38 kts 97°
2026-04-29 12:34 12.14095 -86.16271 222 ft 30 kts 98°
2026-04-29 12:34 12.14071 -86.16041 222 ft 34 kts 97°
2026-04-29 12:34 12.14045 -86.15855 219 ft 20 kts 105°
2026-04-29 12:34 12.14042 -86.15785 219 ft 1 kts 344°